Weather History for New York JFK, NY

Change the Weather History Date:

Tuesday, July 2, 2013

  Actual Average Record
Temperature  
Mean Temperature 75 °F 75 °F  
Max Temperature 79 °F 82 °F 101 °F (1966)
Min Temperature 71 °F 67 °F 56 °F (2001)
Degree Days  
Heating Degree Days 0 0  
Month to date heating degree days 0 0  
Since 1 June heating degree days 10 21  
Since 1 July heating degree days 0 0  
Cooling Degree Days 10 10  
Month to date cooling degree days 20 20  
Year to date cooling degree days 226 238  
Since 1 June cooling degree days 200 203  
Growing Degree Days 24 (Base 50)    
Moisture  
Dew Point 70 °F    
Average Humidity 85    
Maximum Humidity 93    
Minimum Humidity 76    
Precipitation  
Precipitation 0.25 in 0.11 in 1.15 in (1986)
Month to date precipitation 1.23 0.23  
Year to date precipitation 22.43 21.43  
Snow  
Snow 0.00 in 0.00 in - ()
Month to date snowfall 0.0 0.0  
Since 1 July snowfall 0.0 0.0  
Snow Depth -    
Sea Level Pressure  
Sea Level Pressure 30.13 in    
Wind  
Wind Speed 12 mph (South)    
Max Wind Speed 21 mph    
Max Gust Speed 49 mph    
Visibility 6 miles    
Events Rain , Thunderstorm    
T = Trace of Precipitation, MM = Missing Value Source: NWS Daily Summary

Daily Weather History Graph

Daily Weather History Graph

Search for Another Location

Airport:

Trip Planner

Search our weather history database for the weather conditions in past years. The results will help you decide how hot, cold, wet, or windy it might be!

Date:

Astronomy

Jul. 02, 2013 Rise Set
Actual Time 5:28 AM EDT 8:29 PM EDT
Civil Twilight 4:55 AM EDT 9:02 PM EDT
Nautical Twilight 4:13 AM EDT 9:44 PM EDT
Astronomical Twilight 3:23 AM EDT 10:33 PM EDT
Moon 1:30 AM EDT (7/2) 3:40 PM EDT (7/2)
Length of Visible Light 16h 07m
Length of Day
15h 01m
Waning Crescent, 26% of the Moon is Illuminated
Jul 2
Waning Crescent
Jul 8
New
Jul 15
First Quarter
Jul 22
Full
Jul 29
Last Quarter

Hourly Weather History & Observations

Time (EDT) Temp. Dew Point Humidity Pressure Visibility Wind Dir Wind Speed Gust Speed Precip Events Conditions
12:51 AM 72.0 °F 69.1 °F 91% 30.08 in 8.0 mi South 10.4 mph - N/A   Overcast
1:23 AM 71.6 °F 69.8 °F 94% 30.08 in 1.5 mi South 11.5 mph - N/A   Overcast
1:42 AM 71.6 °F 69.8 °F 94% 30.08 in 0.5 mi South 10.4 mph - N/A   Overcast
1:51 AM 72.0 °F 70.0 °F 93% 30.08 in 0.5 mi South 10.4 mph - N/A   Overcast
2:40 AM 71.6 °F 69.8 °F 94% 30.08 in 2.0 mi South 16.1 mph - N/A   Overcast
2:51 AM 72.0 °F 70.0 °F 93% 30.08 in 2.0 mi South 13.8 mph - N/A   Overcast
3:45 AM 71.6 °F 69.8 °F 94% 30.07 in 7.0 mi South 12.7 mph - N/A   Overcast
3:51 AM 72.0 °F 70.0 °F 93% 30.08 in 7.0 mi South 12.7 mph - N/A   Overcast
4:21 AM 71.6 °F 69.8 °F 94% 30.08 in 8.0 mi South 13.8 mph - N/A   Overcast
4:51 AM 72.0 °F 70.0 °F 93% 30.09 in 8.0 mi South 11.5 mph - N/A   Overcast
4:58 AM 71.6 °F 69.8 °F 94% 30.09 in 8.0 mi South 10.4 mph - N/A   Overcast
5:20 AM 71.6 °F 69.8 °F 94% 30.10 in 8.0 mi South 10.4 mph - N/A   Overcast
5:51 AM 72.0 °F 70.0 °F 93% 30.11 in 6.0 mi SSW 11.5 mph 18.4 mph 0.00 in Rain Light Rain
6:44 AM 71.6 °F 69.8 °F 94% 30.11 in 1.5 mi South 10.4 mph - 0.00 in   Mostly Cloudy
6:51 AM 72.0 °F 70.0 °F 93% 30.12 in 1.5 mi South 12.7 mph - 0.00 in   Mostly Cloudy
7:00 AM 71.6 °F 69.8 °F 94% 30.12 in 0.5 mi South 11.5 mph - N/A   Mostly Cloudy
7:51 AM 72.0 °F 70.0 °F 93% 30.13 in 0.5 mi South 11.5 mph - N/A   Overcast
8:51 AM 72.0 °F 70.0 °F 93% 30.15 in 0.5 mi South 11.5 mph - N/A   Overcast
9:37 AM 71.6 °F 69.8 °F 94% 30.15 in 1.0 mi South 10.4 mph - N/A   Overcast
10:20 AM 71.6 °F 69.8 °F 94% 30.15 in 2.0 mi South 10.4 mph - N/A   Overcast
10:51 AM 73.9 °F 71.1 °F 91% 30.16 in 6.0 mi South 8.1 mph - N/A   Overcast
11:37 AM 75.2 °F 71.6 °F 89% 30.16 in 7.0 mi South 11.5 mph - 0.00 in   Overcast
11:51 AM 75.9 °F 71.1 °F 85% 30.17 in 9.0 mi South 12.7 mph - 0.00 in   Mostly Cloudy
12:51 PM 73.9 °F 71.1 °F 91% 30.16 in 7.0 mi South 15.0 mph - 0.00 in Rain Light Rain
1:11 PM 75.2 °F 71.6 °F 89% 30.15 in 7.0 mi South 13.8 mph - 0.01 in Rain Light Rain
1:51 PM 78.1 °F 72.0 °F 81% 30.15 in 10.0 mi South 13.8 mph - 0.01 in   Mostly Cloudy
2:51 PM 78.1 °F 71.1 °F 79% 30.14 in 10.0 mi South 15.0 mph - N/A   Mostly Cloudy
3:51 PM 78.1 °F 71.1 °F 79% 30.14 in 10.0 mi South 17.3 mph - N/A   Mostly Cloudy
4:51 PM 75.9 °F 69.1 °F 79% 30.12 in 10.0 mi South 18.4 mph - N/A   Mostly Cloudy
5:51 PM 77.0 °F 70.0 °F 79% 30.13 in 10.0 mi South 15.0 mph - N/A   Mostly Cloudy
6:51 PM 75.0 °F 70.0 °F 84% 30.15 in 10.0 mi South 16.1 mph - N/A   Mostly Cloudy
7:51 PM 73.9 °F 71.1 °F 91% 30.16 in 10.0 mi SSW 12.7 mph - 0.01 in   Mostly Cloudy
8:22 PM 73.4 °F 69.8 °F 88% 30.20 in 6.0 mi SW 20.7 mph 24.2 mph 0.00 in Rain , Thunderstorm Light Thunderstorms and Rain
8:51 PM 73.0 °F 70.0 °F 90% 30.19 in 5.0 mi SW 10.4 mph - 0.20 in Rain , Thunderstorm Light Thunderstorms and Rain
9:12 PM 73.4 °F 71.6 °F 94% 30.19 in 8.0 mi SW 13.8 mph 20.7 mph 0.01 in Rain Light Rain
9:51 PM 73.0 °F 70.0 °F 90% 30.20 in 10.0 mi South 8.1 mph - 0.02 in   Overcast
10:51 PM 73.0 °F 70.0 °F 90% 30.20 in 10.0 mi South 9.2 mph - 0.00 in Rain Light Rain
11:51 PM 72.0 °F 69.1 °F 91% 30.20 in 10.0 mi South 4.6 mph - 0.01 in   Mostly Cloudy